CAPE
987 859 716 663 648 617 514 420 668 907 947 668 473 627 772 944 926 1010 1255 1275 1327 1388 1412 1382 1223 1041 1192 1336 1199 1283 1401 1534 1667 1722 1807 1977 1957 2035 2043 1904 1888 1862 1956 1853 1958 2230 2187 2003 1930 1850 1868 1808 1688 1674 1701 1542 1455 1340 1028 822 935 1039 1225 1069 1193 1276 1442 1461 1860 2089 2457 3058 3697 3804 3721 3190 3060 2970 2855 2596 2323 2152 2156 2093 1975
913 891 879 724 640 663 599 503 528 665 849 969 679 454 680 863 906 1121 1052 1155 1228 1283 1314 1359 1288 1090 1161 1228 1227 1128 1189 1289 1538 1656 1690 1785 1910 1884 2147 2139 2087 2032 1945 2042 2037 2232 2325 2210 2145 1955 1934 1973 1963 1885 1831 1706 1361 1202 1514 1432 1504 1531 1099 1249 1121 1383 1351 1362 2146 2303 2536 3257 3532 3240 3614 3222 2973 2875 2734 2585 2388 2248 2272 2213 2038
831 793 780 715 518 532 514 530 493 426 608 852 792 596 798 882 930 1004 1010 1062 1117 1166 1220 1269 1272 1166 1231 1254 1244 1203 1087 1103 1087 1419 1588 1621 1730 1860 2033 2266 2288 2257 2092 2145 2119 2194 2273 2422 2379 2141 2043 2043 2060 2059 2014 1962 1780 1340 1195 1317 1452 1573 1778 1445 1448 1461 1490 1664 1649 2217 2913 3383 3345 3491 3092 3220 3115 2701 2538 2434 2416 2336 2314 2275 2120
771 680 602 522 488 481 446 390 482 455 389 534 770 869 926 1028 1216 1208 1172 1196 1185 1121 1166 1262 1284 1185 1308 1440 1338 1278 1141 1076 1054 987 1094 1386 1524 1645 1907 2192 2242 2288 2296 2221 2140 2184 2283 2320 2317 2268 2280 2208 2113 2131 2135 2087 2008 1903 1771 1588 1268 1020 1612 2070 1732 1626 1767 1643 1876 2278 2729 3089 3130 2727 2945 3027 2901 2794 2617 2609 2513 2424 2357 2266 2098
598 588 421 412 452 546 542 471 452 462 503 726 662 740 1033 1145 1273 1238 1218 1132 1082 1131 1190 1172 978 920 1013 1396 1376 1346 1295 1118 1100 1108 1044 1131 1406 1583 1767 2026 2132 2206 2201 2181 2353 2166 2162 2264 2223 2152 2186 2182 2140 1953 1948 1970 1985 1951 1820 1636 1435 1221 965 1686 2047 1883 1781 1788 1937 1929 2323 2700 2642 2734 2906 2904 2642 2722 2741 2700 2630 2474 2338 2177 2033
681 524 338 459 551 474 529 581 483 389 366 510 703 735 939 1172 1239 1268 1100 1071 1084 1131 1155 1128 860 802 992 1115 1167 1301 1354 1218 1215 1233 1200 1077 1143 1412 1735 2000 2083 2109 2089 2028 2058 2230 2054 2052 2003 2030 1983 2029 2154 2092 1905 1744 1620 1567 1517 1422 1361 1350 1329 1372 1872 1999 1960 2047 1933 1928 2284 2605 2687 2449 2546 2671 2542 2356 2376 2534 2442 2343 2171 2041 1944
775 660 534 416 473 424 410 458 432 369 355 544 693 711 796 919 1056 1119 1134 1104 1093 1097 1114 1090 958 885 866 993 1050 1091 1171 1180 1233 1268 1249 1174 1086 1206 1348 1695 2008 2079 2103 2040 1970 2002 2002 1960 2014 1915 1966 1949 1930 1985 1944 1823 1822 1785 1643 1515 1441 1315 1229 1256 1475 1793 2010 1961 1959 1840 2005 2184 2426 2759 2234 2440 2503 2451 2352 2256 2200 2155 2034 1939 1774
879 703 532 455 458 526 668 443 476 538 725 797 739 719 834 974 1030 1100 1125 1138 1160 1136 1138 1034 986 866 709 883 998 1026 1034 1068 1104 1136 1157 1124 1147 1275 1355 1302 1405 1585 1751 1925 1958 1983 2001 2010 1999 2057 2004 2035 1966 2008 1941 1981 1934 1903 1781 1615 1493 1357 1287 1392 1392 1725 1912 1928 1975 2164 2001 2088 1879 1750 1882 2218 2335 2355 2336 2331 2370 2221 1719 1623 1526
980 845 678 559 529 534 555 656 618 719 826 892 830 864 901 861 978 1012 1044 1098 1103 1155 1117 1032 912 714 595 719 921 1043 1096 1125 1186 1243 1225 1261 1297 1351 1325 1254 1280 1305 1311 1337 1523 1712 1832 1926 1933 2090 2319 2667 2576 2513 2158 2173 1884 1905 1884 1769 1610 1440 1416 1422 1576 1588 1861 1965 2101 1932 1877 2038 2028 2190 1880 1986 2187 2802 2744 2054 2127 2170 2141 1695 1624
1121 1007 929 894 741 705 646 689 801 768 841 836 886 983 958 902 981 1042 1060 983 901 891 850 771 776 725 671 698 772 866 929 967 1032 1077 1135 1175 1161 1090 1114 1108 1091 1283 1358 1351 1345 1489 1532 1632 1930 2299 2648 3020 3219 3511 3335 3118 3046 2188 1950 1900 1788 1703 1568 1601 1625 1694 1810 2025 2010 2164 2253 2264 2221 2150 2348 2381 2578 2538 2202 1884 1903 2039 1649 1639 1636
1305 1207 1138 1053 1002 856 839 793 670 833 944 886 855 893 878 940 867 770 815 923 979 943 942 982 928 863 872 867 859 790 751 798 814 834 903 938 974 890 919 988 1076 1227 1248 1366 1335 1490 1477 1547 1692 2173 2763 3091 3413 3628 3529 3559 3359 3456 3290 2871 2208 1862 1802 1712 1684 1753 1899 1911 1932 1999 2091 2231 2179 2335 2108 2252 2316 2351 2552 2326 2038 1895 1689 1635 1876
1388 1381 1295 1211 1040 1085 1022 861 816 721 645 680 691 668 780 879 928 922 996 950 966 910 839 690 596 585 800 944 941 961 874 796 766 808 819 848 1234 1136 852 989 970 1121 1204 1248 1377 1519 1633 1645 1790 1902 2193 2449 2686 2980 3531 3738 3627 3448 3333 3372 3503 3344 2495 2138 2093 2090 1787 1861 1822 1923 2086 2096 1963 2246 2135 2080 2208 2280 2382 2268 1973 2034 1922 1726 1707
1559 1444 1340 1231 1156 1100 1079 1132 920 949 901 774 723 731 680 784 834 841 918 988 1011 1013 820 766 755 565 555 722 666 592 732 802 718 789 839 828 826 1300 1200 1012 854 1054 1112 1311 1399 1568 1640 1832 1745 1707 1608 2340 2947 2887 2912 2927 2788 2854 3053 3365 3457 3291 3125 2896 2514 2586 2225 1989 1948 1891 2021 2002 2136 2249 2143 2507 2551 2380 2229 1846 1886 1915 2049 2015 2027
1536 1480 1428 1349 1275 1146 1027 1022 955 924 908 894 871 846 815 792 828 879 917 880 826 816 861 766 633 737 815 776 759 638 548 577 680 702 690 716 738 854 949 750 705 739 771 819 1318 1470 1518 1638 1739 1730 1647 1806 2274 2671 2818 2813 2679 2546 2495 2563 2627 2837 3204 3048 2927 2812 2820 2414 2095 1891 1799 1989 1859 1973 2406 2106 1618 2069 2222 2009 2138 1820 1706 1731 1860
1531 1501 1467 1446 1386 1269 1124 976 893 848 807 780 736 730 710 686 686 750 830 849 804 753 708 756 770 790 809 866 893 839 817 819 827 891 809 727 725 718 701 622 592 688 762 974 1096 1282 1296 1402 1427 1540 1586 1583 1497 1702 1875 2012 2141 2199 2181 2146 2033 1845 1712 1658 1894 2271 2560 2777 2599 2264 2030 2063 1969 2048 2422 1921 1753 1993 2358 2203 2209 2030 1709 1569 1485
1572 1520 1486 1434 1365 1250 1087 956 853 809 785 818 822 794 743 715 732 739 750 762 737 752 746 689 708 670 656 678 705 687 729 731 858 953 886 780 761 751 652 595 645 705 670 776 912 900 1022 1062 1088 1154 1173 1151 1420 1354 1803 1787 1614 1791 1936 1954 1888 1703 1537 1574 1146 1133 1966 2291 2558 2626 2497 2404 1974 2316 2333 1792 1739 1881 2174 1771 1563 1569 1562 1624 1592
1439 1364 1307 1287 1213 1100 984 885 849 840 876 904 867 808 740 685 692 718 719 716 692 641 618 663 675 695 653 596 604 644 681 747 792 839 802 638 502 572 593 675 658 542 542 577 687 834 968 967 965 964 979 979 1063 1000 948 1552 2072 1668 1365 1487 1562 1552 1590 1654 1185 1093 1102 1224 1564 1817 1935 1967 1934 1875 1878 1875 1866 2290 1869 1849 1850 1674 1290 1314 1191
1554 1472 1376 1293 1155 1115 1117 1145 1104 1069 1017 976 980 958 850 744 742 746 779 826 856 899 911 894 875 854 824 762 737 726 701 654 614 567 527 483 468 474 504 558 575 547 556 442 510 723 819 1192 1386 1096 1004 949 725 732 775 959 1502 1521 1478 1474 1477 1658 1631 1616 1518 1626 1190 1212 1304 1424 1534 1656 1742 1801 1814 1816 1814 1847 2044 1912 1941 1734 1566 1570 1448
1820 1717 1566 1422 1358 1383 1412 1408 1422 1340 1233 1181 1147 1165 1129 1052 938 886 862 832 851 888 885 803 773 754 760 762 759 757 742 706 620 562 487 395 399 400 447 477 494 444 355 322 390 574 508 970 1338 1890 1648 1162 780 802 787 725 1062 1150 1286 1325 1440 1522 1556 1537 1587 1644 1756 1815 1957 1652 1682 1609 1659 1709 1736 1687 1652 1716 1873 2084 2208 1661 1612 1598 1613
1963 1928 1873 1794 1763 1730 1676 1588 1535 1508 1450 1341 1280 1211 1182 1123 1047 952 957 952 944 947 941 934 900 866 804 753 713 852 713 614 538 451 402 366 276 251 240 277 383 450 362 348 390 426 490 539 490 474 493 606 887 1046 1152 1144 1105 1040 1071 1085 1134 1304 1442 1403 1632 1602 1740 1778 2017 2134 2188 2344 2408 2132 2073 1926 1601 1474 1545 1568 1691 1823 1683 1696 1555
2038 2015 1980 1904 1814 1770 1735 1657 1607 1522 1482 1445 1337 1256 1240 1266 1248 1213 1179 1116 1017 986 932 879 808 720 661 642 646 685 668 621 725 403 397 387 263 266 275 276 336 353 416 398 322 329 387 447 516 492 413 413 410 424 445 507 571 701 883 1138 1278 1375 1338 1733 1589 1850 2225 2231 2032 2047 1996 2046 2129 2222 2293 2344 2174 1969 1600 1516 1522 1657 1740 1716 1679
2134 2067 1981 1840 1736 1654 1643 1605 1508 1462 1477 1460 1296 1273 1404 1388 1380 1262 1256 1190 1093 964 793 717 709 637 526 535 554 682 804 956 899 576 464 424 456 428 387 329 350 349 349 353 391 515 596 712 719 577 564 620 673 687 685 697 789 866 892 895 938 964 1003 1050 1111 1132 1310 1351 1458 1583 1709 1811 1923 1951 1917 2075 2094 2125 2049 1709 1509 1564 1635 1507 1687
2187 2077 1901 1737 1623 1481 1356 1358 1369 1391 1450 1474 1488 1562 1560 1485 1437 1332 1349 1331 1203 1157 920 693 612 568 499 516 717 887 971 1176 1098 1057 1029 1108 1072 883 759 677 618 475 338 464 504 540 497 525 690 727 748 804 818 830 847 849 846 840 864 894 961 1037 1090 1159 1240 1290 1358 1415 1447 1452 1464 1459 1542 1644 1793 1856 1943 2032 2159 2170 2029 1666 1520 1522 1544
2147 1914 1698 1448 1253 1057 1010 1076 1134 1180 1266 1402 1562 1650 1606 1461 1432 1379 1465 1459 1332 1423 1413 1122 925 986 1018 913 1268 1394 1350 1232 1252 1334 1338 1387 1450 1400 1165 1101 989 856 771 789 891 980 972 925 866 833 856 964 1120 1203 1226 1213 1180 1156 1126 1103 1040 982 913 865 855 879 914 963 1022 1090 1187 1279 1356 1395 1391 1527 1742 1996 2087 2131 2145 2015 1834 1681 1611
1879 1574 1436 1348 1231 1130 1025 988 983 1142 1168 1190 1332 1366 1441 1438 1355 1327 1377 1397 1370 1272 1160 1255 1231 1186 1118 1125 1341 1379 1339 1406 1322 1357 1394 1370 1367 1343 1263 1348 1291 1198 1206 1271 1239 1258 1245 1209 1156 1105 1087 1083 1070 1054 1029 990 942 867 804 791 799 841 878 912 936 960 985 1028 1051 1054 1093 1079 965 983 1075 1276 1503 1786 1761 1874 1911 1884 1918 1940 1844
1755 1575 1557 1456 1349 1333 1278 1176 1161 1176 1128 1140 1187 1164 1206 1244 1279 1380 1413 1437 1433 1412 1341 1230 1248 1240 1192 1152 1107 1182 1233 1380 1422 1447 1500 1527 1499 1503 1522 1520 1447 1392 1336 1283 1275 1224 1169 1113 1037 945 860 810 764 753 744 713 694 679 656 638 621 606 590 567 562 553 552 577 594 637 692 778 839 852 914 1054 1128 1188 1358 1611 1772 1606 1578 1429 1410
1672 1608 1642 1468 1426 1401 1349 1250 1324 1336 1245 1287 1378 1485 1496 1506 1484 1477 1459 1437 1328 1275 1291 1287 1186 1197 1234 1243 1179 1186 1150 1272 1340 1429 1192 1301 1297 1344 1324 1265 1159 1153 1212 1202 1125 1040 972 917 857 803 760 702 636 583 522 463 379 314 254 225 153 118 172 287 320 300 361 350 335 349 465 635 760 700 763 757 827 988 1050 1075 1260 1432 1636 1568 1326
1645 1642 1671 1585 1505 1488 1428 1476 1521 1482 1435 1450 1549 1588 1587 1553 1506 1444 1406 1371 1365 1285 1208 1174 1142 1142 1184 1154 1093 1080 1057 904 992 1055 1024 1010 994 1012 990 1018 1033 1007 968 934 899 864 811 723 583 420 254 123 0 1 1 2 2 2 2 4 4 22 158 222 370 444 467 447 429 436 535 640 653 667 691 727 832 918 966 894 984 1084 1280 1317 1332
1656 1658 1690 1714 1602 1592 1573 1524 1525 1516 1413 1529 1583 1451 1334 1366 1312 1273 1224 1258 1217 1142 1072 936 918 961 928 899 898 834 804 824 790 750 717 696 720 775 796 784 775 724 639 518 380 76 12 0 0 0 0 0 1 1 0 1 2 0 2 3 3 9 30 105 141 198 305 318 292 342 321 402 401 425 377 419 530 667 853 741 749 759 1008 1024 866
1690 1708 1731 1725 1663 1587 1568 1555 1519 1514 1509 1515 1454 1211 1024 995 1046 1117 1142 921 907 856 689 750 803 900 900 964 974 910 761 730 474 400 416 416 419 443 450 392 198 136 0 0 0 0 0 0 0 0 0 0 0 1 1 2 2 3 3 1 3 11 13 11 20 63 109 168 268 295 249 258 239 261 271 271 340 408 472 403 485 617 550 650 650
1666 1642 1633 1673 1634 1589 1483 1525 1551 1574 1534 1497 1335 1149 917 763 771 753 753 742 661 579 514 550 635 807 816 794 787 587 460 412 340 265 0 0 0 0 0 0 0 0 0 0 0 0 0 0 0 0 1 1 1 2 3 3 5 5 4 4 7 12 9 8 6 14 101 156 167 203 191 207 240 256 298 313 306 339 424 436 413 409 443 490 572
1563 1535 1555 1552 1627 1580 1442 1403 1425 1404 1340 1212 1090 974 810 653 569 620 643 635 604 553 478 276 129 170 388 429 424 355 245 112 0 0 0 0 0 0 0 0 0 0 0 0 0 0 0 0 0 0 1 1 1 2 2 1 1 2 3 6 9 16 17 12 11 17 13 22 33 55 121 174 215 253 305 366 354 479 472 444 484 452 460 448 466
1389 1403 1465 1493 1518 1830 1388 1334 1358 1340 1239 1084 1025 942 845 673 601 634 571 593 564 346 0 0 0 0 0 0 0 0 0 0 0 0 0 0 0 0 0 0 0 0 0 0 0 0 1 0 0 0 1 1 1 1 2 1 2 3 7 7 10 6 13 11 7 14 8 10 14 48 74 92 124 176 202 238 268 272 266 280 291 389 431 410 473
1320 1296 1340 1440 1468 1592 1421 1318 1273 1268 1187 1105 1054 1007 924 777 661 608 549 547 466 0 0 0 0 0 0 0 0 0 0 0 0 0 0 0 0 0 0 0 0 0 0 0 0 1 1 0 0 0 0 2 3 4 2 2 2 3 4 4 3 2 3 8 10 9 5 55 80 108 110 103 102 97 113 182 160 205 272 291 274 256 262 354 440
1250 1301 1562 1415 1316 1404 1391 1318 1272 1210 1167 1104 1073 1072 1033 908 745 633 589 565 496 424 254 20 0 0 0 0 0 0 0 0 0 0 0 0 0 0 0 0 0 0 0 0 1 1 1 1 1 2 3 3 3 4 3 4 4 4 5 4 4 1 0 2 7 8 7 5 4 3 36 67 84 131 148 192 186 166 199 136 81 99 120 141 137
1006 1090 2002 1864 1059 1088 1255 1275 1217 1150 1113 1075 1052 1033 1005 946 779 715 626 538 543 488 422 352 348 291 0 0 0 0 0 0 0 0 0 0 0 0 0 0 0 1 2 0 1 2 2 2 1 1 2 1 2 4 4 5 3 4 4 6 6 1 2 4 9 7 2 4 3 2 2 3 2 3 4 4 3 2 2 3 2 4 3 2 2
982 1084 1730 1452 1025 1054 1123 1064 969 926 882 881 853 854 867 870 832 753 666 568 484 465 402 348 298 308 322 240 130 0 0 0 0 0 0 0 0 0 0 0 0 0 0 0 1 2 1 0 0 0 0 1 1 0 0 0 0 0 2 3 1 0 3 5 9 3 2 2 2 2 3 2 2 1 1 1 1 2 2 3 2 2 32 32 44
943 1033 1475 1692 1316 1084 1001 954 893 807 700 698 695 730 745 738 703 647 602 548 454 407 365 357 296 293 311 294 270 252 0 0 0 0 0 0 0 0 0 0 0 0 0 0 0 0 0 0 0 0 0 0 0 0 0 0 0 0 0 1 2 1 1 2 2 3 2 0 1 1 2 1 0 0 0 0 0 0 4 20 50 81 95 140 171
985 1014 1234 1528 1305 1018 855 792 760 642 482 428 480 486 491 470 632 618 510 450 602 390 388 389 350 313 340 347 342 303 262 0 234 0 0 0 0 0 0 0 0 0 0 0 0 0 0 0 0 0 0 0 0 0 0 0 0 0 0 0 0 0 0 0 1 2 2 2 2 1 0 0 3 3 3 4 3 4 9 8 16 24 45 0 0
996 976 930 1019 915 733 657 590 511 423 358 6 0 74 382 468 523 501 441 391 432 449 427 431 415 387 299 309 319 317 8 20 0 0 0 0 0 0 0 0 0 0 0 0 0 1 0 0 0 0 0 0 0 0 0 0 0 0 0 0 0 0 0 0 0 0 0 0 0 0 0 1 3 1 1 2 2 1 0 0 0 0 0 0 0
936 919 866 829 794 712 645 543 297 86 85 131 6 84 61 314 204 259 300 364 420 431 428 414 411 320 297 298 316 265 205 179 100 13 0 0 0 0 0 0 0 0 0 0 0 0 0 1 1 1 0 0 0 0 0 0 0 0 0 0 0 0 0 0 0 0 0 0 0 0 0 0 0 0 0 0 0 0 0 0 1 1 1 1 0
888 878 848 808 722 532 441 509 173 307 110 121 10 0 60 332 299 160 113 148 234 281 318 345 331 273 284 298 169 64 38 0 0 0 17 34 2 0 0 0 0 0 0 0 0 1 1 1 0 0 0 0 0 0 0 0 0 0 0 0 0 0 0 0 0 0 0 0 0 0 0 0 0 0 0 0 0 0 0 0 0 1 0 0 0
877 845 778 646 480 294 88 190 87 9 5 0 0 53 109 121 156 184 216 167 65 54 33 42 170 171 204 280 88 0 0 0 56 0 32 106 70 6 0 0 0 0 0 0 0 0 0 0 0 0 0 0 0 0 0 0 0 0 0 0 0 0 0 0 0 0 0 0 0 0 0 0 0 0 0 0 0 0 0 0 0 0 0 1 1
820 701 583 434 155 0 12 0 2 0 0 2 2 0 16 24 28 52 70 166 100 139 29 16 29 27 13 0 0 0 0 5 4 1 2 19 8 0 0 0 0 0 0 0 0 0 0 0 0 0 0 0 0 0 0 0 0 0 0 0 0 0 0 0 0 0 0 0 0 0 0 0 0 0 0 0 0 0 0 0 0 0 0 0 0
598 465 183 1 0 0 0 0 0 0 0 6 1 0 159 7 0 0 2 48 72 94 44 64 49 66 0 0 107 92 61 16 4 114 118 8 0 0 0 0 0 0 0 0 0 0 0 0 0 0 0 0 0 0 0 0 0 0 0 0 0 0 0 0 0 0 0 0 0 0 0 0 0 0 0 0 0 0 0 0 0 0 0 0 0
152 0 2 0 0 0 0 0 8 0 25 2 0 0 125 56 33 18 16 4 15 62 30 56 70 7 6 0 0 46 0 0 0 0 0 0 0 0 0 0 0 0 0 0 0 0 0 0 0 0 0 0 0 0 0 0 0 0 0 0 0 0 0 0 0 0 0 0 0 0 0 0 0 0 0 0 0 0 0 0 0 0 0 0 0
0 0 0 3 0 0 0 0 0 0 0 0 0 0 5 16 15 5 60 36 6 86 2 37 43 13 8 0 0 0 0 0 0 0 0 0 0 0 0 0 0 0 0 0 0 0 0 0 0 0 0 0 0 0 0 0 0 0 0 0 0 0 0 0 0 0 0 0 0 0 0 0 0 0 0 0 0 0 0 0 0 0 0 0 0
0 0 0 0 0 0 0 0 49 63 0 0 0 0 0 0 0 0 14 57 44 39 0 0 0 0 0 0 0 0 0 0 0 0 0 0 0 0 0 0 0 0 0 0 0 0 0 0 0 0 0 0 0 0 0 0 0 0 0 0 0 0 0 0 0 0 0 0 0 0 0 0 0 0 0 0 0 0 0 0 0 0 0 0 0
0 0 0 0 0 0 0 0 71 112 14 0 0 0 0 0 0 0 1 10 6 3 2 1 0 0 0 0 0 0 0 0 0 0 0 0 0 0 0 0 0 0 0 0 0 0 0 0 0 0 0 0 0 0 0 0 0 0 0 0 0 0 0 0 0 0 0 0 0 0 0 0 0 0 0 0 0 0 0 0 0 0 0 0 0
364 0 0 0 0 0 0 0 3 55 21 0 0 12 0 0 0 0 0 1 0 0 0 10 0 0 0 0 0 0 0 0 0 0 0 0 0 0 0 0 0 0 0 0 0 0 0 0 0 0 0 0 0 0 0 0 0 0 0 0 0 0 0 0 0 0 0 0 0 0 0 0 0 0 0 0 0 0 0 0 0 0 0 0 0
536 281 0 0 0 0 0 0 0 0 0 0 0 0 0 0 0 0 0 0 0 0 0 0 0 0 0 0 0 0 0 0 0 0 0 0 0 0 0 0 0 0 0 0 0 0 0 0 0 0 0 0 0 0 0 0 0 0 0 0 0 0 0 0 0 0 0 0 0 0 0 0 0 0 0 0 0 0 0 0 0 0 0 0 0
Wind_Speed
15 14 15 14 13 13 12 13 14 16 18 22 25 23 23 23 23 21 22 21 23 22 20 18 18 19 21 21 21 21 20 21 22 23 23 22 22 22 23 22 21 21 21 20 20 19 18 18 18 18 18 17 18 19 19 19 19 20 20 20 19 19 18 18 17 14 16 16 14 14 13 13 14 14 15 14 14 14 15 13 13 12 12 12 12
13 11 12 13 13 13 13 14 14 15 16 19 22 24 22 22 22 23 21 20 21 22 20 21 20 20 21 21 21 22 22 21 23 24 24 23 22 23 23 23 22 21 21 20 20 21 20 19 19 20 20 18 19 20 20 20 19 20 20 19 19 19 18 19 17 19 16 18 17 17 15 15 14 17 17 16 15 16 15 16 14 13 13 13 13
13 12 11 12 12 14 14 15 14 14 16 19 19 21 20 21 23 22 22 22 21 22 24 23 22 22 22 22 21 22 23 22 23 23 23 24 23 22 22 22 22 22 21 19 21 23 23 22 21 23 23 21 21 22 22 21 20 20 19 20 19 19 19 18 21 18 17 17 18 18 18 18 16 18 18 18 18 17 16 16 16 16 13 14 14
12 11 11 11 12 13 14 14 13 13 14 17 18 20 23 23 23 22 22 24 22 27 35 37 35 29 22 20 20 20 21 22 23 23 23 24 24 22 22 22 22 22 21 20 21 23 22 23 24 25 24 22 22 23 22 22 20 20 19 19 19 19 19 19 17 18 20 19 19 19 20 20 18 19 21 20 20 19 18 19 18 18 17 16 15
11 11 11 10 10 10 10 12 11 10 12 16 19 21 25 25 23 21 24 24 25 30 31 28 25 22 17 18 19 18 19 21 22 22 24 25 24 24 23 23 22 21 20 20 20 20 21 22 24 26 25 22 23 23 24 21 21 20 19 20 20 20 21 19 19 20 20 19 20 22 22 21 22 21 21 21 21 21 21 19 18 17 17 19 18
12 11 10 9 9 6 7 7 6 9 18 24 22 24 24 24 23 23 23 24 28 28 25 24 24 21 17 15 19 19 19 20 21 22 23 25 25 25 25 24 22 21 20 20 20 21 21 22 25 27 26 23 23 24 25 22 23 21 20 20 20 21 20 19 20 21 20 20 21 21 24 22 23 21 20 20 21 21 21 21 20 19 19 19 21
13 12 8 7 10 9 11 11 7 13 28 33 30 27 25 24 24 24 25 26 27 25 21 23 22 20 18 19 19 21 21 21 20 21 23 24 25 25 25 24 23 23 22 21 21 22 23 24 25 26 26 25 25 25 26 25 24 21 21 22 22 22 21 21 22 21 20 21 22 23 22 23 23 21 23 21 20 21 21 21 18 20 21 20 19
12 12 8 6 7 8 8 10 14 21 28 32 32 30 29 25 23 24 25 24 23 20 19 22 23 22 21 22 21 22 22 22 22 23 23 24 25 25 25 24 23 23 23 22 23 24 24 24 24 25 25 26 26 27 28 27 27 24 24 25 25 24 23 23 23 22 22 22 22 23 25 25 25 25 26 25 22 22 21 20 17 20 21 21 21
12 11 8 4 6 7 9 10 10 15 21 23 22 26 28 27 27 27 26 24 23 19 20 22 22 21 20 20 19 21 21 22 24 24 24 24 25 24 24 23 22 22 23 23 25 25 26 25 24 25 24 23 23 25 28 29 30 27 26 28 26 25 24 24 23 24 24 24 23 25 25 25 25 27 25 24 24 22 25 22 19 19 22 21 20
12 10 8 4 4 5 7 8 8 10 14 18 21 25 26 30 32 32 29 24 22 21 25 23 22 20 19 18 19 21 22 22 22 20 22 25 24 24 23 22 21 21 22 23 25 26 25 25 25 20 19 19 18 20 22 24 25 28 28 29 28 27 26 25 25 25 25 24 23 25 25 24 25 27 26 26 27 28 28 25 20 18 22 19 21
11 11 9 6 3 4 7 7 8 10 14 22 27 28 30 30 29 27 23 22 21 24 21 20 20 19 18 18 18 21 22 22 19 20 20 20 23 23 21 21 22 22 22 23 23 25 26 25 25 23 20 18 18 17 19 21 23 24 24 27 29 29 28 27 26 27 27 25 25 27 26 24 24 27 27 28 31 29 27 26 23 23 21 19 19
12 11 11 10 7 3 4 9 11 13 14 16 18 21 23 24 23 21 20 22 25 25 22 20 20 19 24 25 24 23 22 20 18 20 20 18 19 22 21 21 21 21 22 22 23 25 26 26 27 28 26 24 23 23 22 20 21 23 24 25 25 24 27 28 27 29 28 27 26 25 26 26 24 28 28 31 30 30 28 27 25 23 22 21 21
13 12 12 11 9 6 4 7 6 8 10 13 15 17 17 18 20 22 22 24 26 24 24 23 21 23 23 19 19 20 19 18 15 15 17 17 16 18 21 20 20 21 22 22 23 23 24 26 27 28 28 23 23 25 26 26 24 23 24 25 25 24 25 25 26 28 31 28 27 25 27 27 26 27 31 32 36 31 31 28 25 25 23 23 23
14 14 13 12 11 8 6 6 5 4 6 8 8 10 11 12 15 20 25 26 25 24 22 21 20 19 18 17 20 20 18 16 17 18 18 17 16 19 28 27 24 23 19 20 22 23 23 24 26 26 28 27 27 27 28 27 27 26 27 29 30 28 26 26 26 25 28 30 29 26 25 31 26 27 31 40 37 31 33 29 27 26 27 24 26
14 13 14 13 11 11 9 9 7 5 6 6 7 7 7 10 10 13 17 20 20 20 20 19 18 16 17 19 18 18 17 14 17 18 19 20 24 27 23 23 24 22 21 20 21 21 22 23 23 23 24 26 28 28 28 27 27 26 26 26 27 29 31 31 32 34 34 32 30 28 27 31 28 27 34 39 33 32 33 30 30 29 29 34 32
15 14 14 14 13 13 12 11 11 8 6 5 5 5 7 8 8 9 10 14 15 18 20 19 17 16 17 17 17 16 17 17 18 18 18 25 34 30 26 25 23 22 22 21 20 21 21 21 21 21 21 23 25 25 26 28 27 26 25 25 26 28 30 30 28 31 33 33 32 30 29 30 30 30 33 35 32 36 40 37 38 38 40 34 27
14 15 15 15 15 14 14 14 12 12 10 6 5 5 7 8 8 8 7 9 10 11 14 15 15 15 14 15 14 16 18 19 19 19 20 28 28 23 24 25 25 23 20 20 20 20 22 22 22 22 22 23 23 24 25 26 27 26 24 25 26 28 27 29 28 27 27 27 26 25 24 24 26 26 27 31 33 39 40 35 30 39 42 31 29
13 14 14 15 15 14 14 14 13 13 12 11 7 4 7 8 8 7 7 7 8 9 12 12 14 15 15 14 15 17 18 19 19 20 22 28 23 23 25 25 20 20 20 21 22 22 22 20 21 23 22 22 21 22 24 29 29 26 24 24 24 25 26 28 30 32 30 27 25 24 24 24 24 23 24 28 34 39 38 32 34 44 40 36 32
13 14 14 15 15 15 15 14 14 13 12 12 11 7 5 7 9 9 7 8 8 11 11 12 13 15 16 15 14 15 19 19 20 19 22 23 20 24 25 23 22 20 23 23 22 23 23 24 21 22 24 23 21 23 25 30 29 27 26 26 24 23 24 26 28 29 30 31 31 32 30 28 28 30 28 26 33 35 33 31 37 43 39 37 35
13 13 13 14 14 14 14 14 14 14 12 11 10 9 7 7 8 10 10 10 10 11 12 12 11 13 15 16 17 17 19 20 21 19 19 18 17 21 22 21 23 28 24 21 22 22 23 24 25 23 21 21 22 23 25 30 30 28 28 27 24 22 25 26 27 29 29 29 29 31 29 31 32 32 32 32 34 37 34 32 33 37 37 35 37
11 11 12 13 13 13 13 14 14 14 13 12 11 10 9 8 7 7 8 10 12 12 11 10 11 12 15 17 18 18 19 19 19 18 16 15 15 19 20 20 22 21 21 23 23 22 23 25 27 26 24 23 24 25 28 29 28 27 28 27 25 23 27 28 26 25 28 29 29 31 31 32 31 31 31 33 34 36 36 35 35 37 38 36 34
10 11 11 12 13 13 13 12 12 12 13 13 13 12 11 9 8 7 6 7 9 10 12 13 14 14 16 17 19 21 19 15 20 18 14 13 13 17 19 19 21 22 24 25 25 24 24 27 28 31 34 35 34 35 34 34 32 29 27 27 28 30 29 29 30 31 31 30 30 31 31 32 31 30 30 32 34 36 37 37 37 38 38 36 35
13 12 11 11 12 13 13 13 12 12 13 13 14 13 13 12 10 9 9 8 7 6 8 11 14 16 18 20 21 23 23 21 19 19 20 17 15 16 18 21 21 23 24 23 24 24 27 28 29 35 31 30 28 28 27 27 28 29 27 28 29 29 29 30 31 30 30 30 30 28 29 29 30 30 32 33 34 35 37 38 39 39 38 37 36
16 14 12 10 10 11 12 12 13 13 13 13 13 13 13 11 10 10 10 10 10 9 7 7 9 12 15 19 24 26 23 20 19 23 25 20 19 17 19 24 23 22 24 24 27 27 26 26 29 30 29 28 27 26 25 26 26 25 25 26 28 31 33 31 31 31 31 31 30 28 29 31 31 31 32 33 35 36 36 38 39 40 39 39 38
16 15 13 12 11 11 11 11 13 13 12 13 13 13 12 11 11 10 10 10 11 11 10 9 9 9 12 15 20 24 24 23 25 26 25 22 21 23 27 27 28 29 28 27 27 29 30 29 29 29 29 28 26 26 26 25 23 23 23 25 28 33 33 33 32 33 31 30 30 28 29 32 34 33 34 35 36 37 38 40 40 40 40 39 39
15 15 14 12 12 12 13 12 12 12 11 11 11 12 12 12 11 12 11 11 11 11 12 12 11 11 13 13 15 20 19 18 22 22 23 26 26 27 30 30 30 30 31 32 34 33 31 29 30 30 30 30 29 29 29 29 27 25 25 27 33 33 33 33 33 33 31 32 33 31 27 30 33 35 34 37 37 35 39 41 41 39 41 43 43
15 15 14 13 13 14 14 13 12 12 11 11 12 13 13 13 13 13 13 12 12 11 12 12 13 13 14 14 15 17 18 16 18 21 22 23 25 27 27 27 29 29 29 30 31 31 31 31 31 29 28 27 27 26 25 25 27 29 30 32 33 33 34 35 35 33 33 34 35 34 32 32 35 36 36 37 38 39 40 42 43 41 43 46 45
16 15 15 14 14 15 15 15 15 13 13 13 14 14 14 14 14 14 14 14 14 12 13 12 12 13 14 15 17 18 20 18 18 19 20 22 24 24 25 25 25 24 25 26 26 27 28 29 29 29 30 30 nan nan nan nan nan nan nan nan nan nan 30 27 28 32 32 32 33 34 32 34 35 35 36 37 37 36 39 42 43 40 43 46 48
17 16 15 15 15 15 15 16 17 16 16 15 15 14 13 13 13 12 11 13 14 14 14 13 14 14 16 17 18 18 19 19 18 18 21 23 25 25 25 25 26 26 26 27 27 nan nan nan nan nan nan nan nan nan nan nan nan nan nan nan nan nan nan 32 31 30 30 32 31 31 29 31 31 33 33 34 33 33 38 39 41 38 39 44 44
19 17 15 15 15 16 16 16 18 17 18 18 18 17 19 19 15 12 12 13 13 13 14 15 14 16 18 18 18 19 18 18 24 26 26 26 27 29 29 29 28 28 nan nan nan nan nan nan nan nan nan nan nan nan nan nan nan nan nan nan nan nan nan nan nan nan 32 32 32 31 32 33 32 33 33 35 36 37 38 41 41 42 41 41 41
19 17 16 15 15 16 16 17 16 17 18 18 18 19 18 19 21 21 18 17 15 14 15 14 16 18 20 20 20 21 24 30 29 28 nan nan nan nan nan nan nan nan nan nan nan nan nan nan nan nan nan nan nan nan nan nan nan nan nan nan nan nan nan nan nan nan 32 32 32 32 32 33 33 34 34 36 36 37 38 41 43 43 42 42 40
21 18 16 16 16 17 17 17 18 17 18 18 19 19 19 19 18 19 21 20 18 18 17 17 18 19 20 22 24 22 23 25 nan nan nan nan nan nan nan nan nan nan nan nan nan nan nan nan nan nan nan nan nan nan nan nan nan nan nan nan nan nan nan nan nan nan nan nan nan nan 32 33 33 34 34 36 37 38 38 38 41 43 44 44 44
22 20 18 17 17 17 18 18 18 18 18 18 18 18 19 19 18 18 18 20 20 19 nan nan nan nan nan nan nan nan nan nan nan nan nan nan nan nan nan nan nan nan nan nan nan nan nan nan nan nan nan nan nan nan nan nan nan nan nan nan nan nan nan nan nan nan nan nan nan nan nan nan 32 34 36 37 39 39 39 40 42 43 45 45 46
23 23 22 20 19 19 19 19 19 18 18 19 18 18 17 17 17 18 18 17 17 nan nan nan nan nan nan nan nan nan nan nan nan nan nan nan nan nan nan nan nan nan nan nan nan nan nan nan nan nan nan nan nan nan nan nan nan nan nan nan nan nan nan nan nan nan nan nan nan 32 33 34 33 nan 32 32 34 36 38 40 40 41 42 43 43
24 24 26 24 22 21 21 21 21 22 20 19 18 18 17 17 18 18 18 17 17 16 16 nan nan nan nan nan nan nan nan nan nan nan nan nan nan nan nan nan nan nan nan nan nan nan nan nan nan nan nan nan nan nan nan nan nan nan nan nan nan nan nan nan nan nan nan nan nan nan nan nan nan 34 35 35 35 35 35 37 nan nan 41 43 44
21 22 24 27 26 25 25 24 24 23 22 21 20 19 20 20 18 18 18 18 18 17 16 18 19 20 nan nan nan nan nan nan nan nan nan nan nan nan nan nan nan nan nan nan nan nan nan nan nan nan nan nan nan nan nan nan nan nan nan nan nan nan nan nan nan nan nan nan nan nan nan nan nan nan nan nan nan nan nan nan nan nan nan nan nan
20 22 25 27 27 27 26 25 25 24 24 24 23 22 21 21 21 20 21 19 18 18 20 20 20 21 20 19 24 nan nan nan nan nan nan nan nan nan nan nan nan nan nan nan nan nan nan nan nan nan nan nan nan nan nan nan nan nan nan nan nan nan nan nan nan nan nan nan nan nan nan nan nan nan nan nan nan nan nan nan nan nan nan nan nan
19 22 25 27 28 27 27 25 24 25 25 25 24 24 23 23 22 22 21 20 19 20 20 19 19 19 19 19 24 23 nan nan nan nan nan nan nan nan nan nan nan nan nan nan nan nan nan nan nan nan nan nan nan nan nan nan nan nan nan nan nan nan nan nan nan nan nan nan nan nan nan nan nan nan nan nan nan nan nan nan nan nan nan 34 36
19 20 24 28 27 27 26 25 25 25 25 26 26 26 25 25 24 24 23 22 21 20 20 20 20 20 19 22 22 25 26 nan 22 nan nan nan nan nan nan nan nan nan nan nan nan nan nan nan nan nan nan nan nan nan nan nan nan nan nan nan nan nan nan nan nan nan nan nan nan nan nan nan nan nan nan nan nan nan nan nan nan nan nan nan nan
22 23 24 26 28 26 26 24 24 24 25 nan nan nan 25 25 24 24 24 24 22 22 22 21 20 20 21 23 23 23 nan nan nan nan nan nan nan nan nan nan nan nan nan nan nan nan nan nan nan nan nan nan nan nan nan nan nan nan nan nan nan nan nan nan nan nan nan nan nan nan nan nan nan nan nan nan nan nan nan nan nan nan nan nan nan
25 24 24 24 26 27 25 24 24 nan nan 24 nan nan nan 24 24 24 25 24 24 24 23 22 21 21 21 23 25 24 23 23 nan nan nan nan nan nan nan nan nan nan nan nan nan nan nan nan nan nan nan nan nan nan nan nan nan nan nan nan nan nan nan nan nan nan nan nan nan nan nan nan nan nan nan nan nan nan nan nan nan nan nan nan nan
27 25 24 25 27 27 26 24 23 22 22 23 nan nan nan 23 24 25 24 24 25 25 25 23 22 21 22 25 25 nan nan nan nan nan nan nan nan nan nan nan nan nan nan nan nan nan nan nan nan nan nan nan nan nan nan nan nan nan nan nan nan nan nan nan nan nan nan nan nan nan nan nan nan nan nan nan nan nan nan nan nan nan nan nan nan
24 23 23 26 27 27 nan 23 nan nan nan nan nan nan 23 23 24 24 24 25 nan nan nan nan 22 23 25 26 nan nan nan nan nan nan nan 22 nan nan nan nan nan nan nan nan nan nan nan nan nan nan nan nan nan nan nan nan nan nan nan nan nan nan nan nan nan nan nan nan nan nan nan nan nan nan nan nan nan nan nan nan nan nan nan nan nan
19 22 23 25 26 nan nan nan nan nan nan nan nan nan nan nan nan nan nan 25 nan 25 nan nan nan nan nan nan nan nan nan nan nan nan nan nan nan nan nan nan nan nan nan nan nan nan nan nan nan nan nan nan nan nan nan nan nan nan nan nan nan nan nan nan nan nan nan nan nan nan nan nan nan nan nan nan nan nan nan nan nan nan nan nan nan
19 21 22 nan nan nan nan nan nan nan nan nan nan nan 23 nan nan nan nan nan nan nan nan nan nan nan nan nan 24 nan nan nan nan 22 22 nan nan nan nan nan nan nan nan nan nan nan nan nan nan nan nan nan nan nan nan nan nan nan nan nan nan nan nan nan nan nan nan nan nan nan nan nan nan nan nan nan nan nan nan nan nan nan nan nan nan
19 nan nan nan nan nan nan nan nan nan nan nan nan nan 23 nan nan nan nan nan nan nan nan nan nan nan nan nan nan nan nan nan nan nan nan nan nan nan nan nan nan nan nan nan nan nan nan nan nan nan nan nan nan nan nan nan nan nan nan nan nan nan nan nan nan nan nan nan nan nan nan nan nan nan nan nan nan nan nan nan nan nan nan nan nan
nan nan nan nan nan nan nan nan nan nan nan nan nan nan nan nan nan nan nan nan nan nan nan nan nan nan nan nan nan nan nan nan nan nan nan nan nan nan nan nan nan nan nan nan nan nan nan nan nan nan nan nan nan nan nan nan nan nan nan nan nan nan nan nan nan nan nan nan nan nan nan nan nan nan nan nan nan nan nan nan nan nan nan nan nan
nan nan nan nan nan nan nan nan nan nan nan nan nan nan nan nan nan nan nan nan nan nan nan nan nan nan nan nan nan nan nan nan nan nan nan nan nan nan nan nan nan nan nan nan nan nan nan nan nan nan nan nan nan nan nan nan nan nan nan nan nan nan nan nan nan nan nan nan nan nan nan nan nan nan nan nan nan nan nan nan nan nan nan nan nan
nan nan nan nan nan nan nan nan nan 20 nan nan nan nan nan nan nan nan nan nan nan nan nan nan nan nan nan nan nan nan nan nan nan nan nan nan nan nan nan nan nan nan nan nan nan nan nan nan nan nan nan nan nan nan nan nan nan nan nan nan nan nan nan nan nan nan nan nan nan nan nan nan nan nan nan nan nan nan nan nan nan nan nan nan nan
20 nan nan nan nan nan nan nan nan nan nan nan nan nan nan nan nan nan nan nan nan nan nan nan nan nan nan nan nan nan nan nan nan nan nan nan nan nan nan nan nan nan nan nan nan nan nan nan nan nan nan nan nan nan nan nan nan nan nan nan nan nan nan nan nan nan nan nan nan nan nan nan nan nan nan nan nan nan nan nan nan nan nan nan nan
21 22 nan nan nan nan nan nan nan nan nan nan nan nan nan nan nan nan nan nan nan nan nan nan nan nan nan nan nan nan nan nan nan nan nan nan nan nan nan nan nan nan nan nan nan nan nan nan nan nan nan nan nan nan nan nan nan nan nan nan nan nan nan nan nan nan nan nan nan nan nan nan nan nan nan nan nan nan nan nan nan nan nan nan nan
Wind_Direction
303 300 298 304 308 301 287 279 272 262 262 244 232 233 239 243 246 239 233 237 243 242 240 240 242 243 242 239 239 237 235 233 230 232 231 229 224 223 224 225 223 219 219 217 220 222 226 227 229 231 233 231 229 228 225 224 229 229 232 237 239 243 250 254 256 248 243 257 256 254 258 273 275 277 278 278 281 282 275 275 279 282 280 278 278
306 300 292 293 298 287 278 269 268 271 268 256 241 231 228 236 242 241 235 234 241 242 241 234 234 238 237 235 235 234 234 234 233 233 234 233 229 225 225 228 227 223 223 219 225 225 228 228 228 232 236 234 235 236 233 232 233 235 236 238 240 243 244 251 252 255 249 248 256 263 265 274 271 275 283 284 284 284 287 278 282 280 275 276 278
302 298 290 286 284 275 268 261 261 273 272 258 247 240 233 235 240 244 236 230 234 239 237 232 229 230 229 230 231 231 233 234 233 234 235 237 234 229 227 230 230 228 226 224 227 232 231 230 230 234 234 236 239 240 240 238 237 238 238 240 241 242 245 247 252 252 255 250 254 257 267 272 276 275 279 276 278 283 285 286 282 278 277 275 276
304 306 297 286 279 277 270 260 262 267 270 265 262 246 234 235 239 241 239 233 233 237 235 227 219 215 225 230 232 230 233 233 234 234 238 240 237 234 231 229 229 229 227 226 230 236 237 237 236 239 238 237 240 244 246 245 242 241 241 241 244 244 247 247 247 251 256 255 253 261 259 267 267 265 271 274 277 278 277 275 278 277 278 277 275
309 306 294 273 272 277 278 270 268 271 268 266 278 257 237 236 238 242 242 238 236 238 238 239 241 242 231 236 238 236 234 235 236 236 235 237 238 237 234 233 231 231 228 227 230 237 240 241 242 246 245 242 242 246 249 250 248 247 245 245 247 247 248 250 249 251 256 259 255 256 257 259 260 262 273 278 276 274 271 273 276 280 282 277 273
316 313 298 267 256 262 269 265 262 273 268 255 263 264 243 234 237 237 242 246 243 243 245 240 237 232 231 239 239 237 236 234 234 234 237 237 237 236 236 235 235 234 233 233 234 236 237 241 242 247 249 248 245 249 251 251 252 252 251 249 249 249 250 251 251 253 256 259 262 255 261 263 264 265 271 275 277 276 272 270 273 277 279 278 278
318 320 308 261 258 264 258 245 227 252 257 251 253 259 244 229 235 236 235 242 248 248 247 243 237 232 226 228 234 237 238 236 234 232 233 237 239 239 239 239 237 237 237 238 238 237 236 237 240 245 248 250 248 250 253 253 253 253 257 255 255 255 254 254 254 255 256 256 258 263 260 262 264 266 267 272 273 273 275 273 274 277 276 279 278
328 328 318 284 246 250 255 251 215 220 235 240 246 244 231 224 231 234 237 245 246 251 249 239 234 232 229 228 231 236 239 238 238 234 233 235 239 241 242 242 241 239 238 239 240 241 242 240 240 244 248 250 251 251 255 254 254 251 253 256 257 258 257 256 256 257 257 257 260 261 265 265 263 263 264 269 270 266 274 278 275 275 280 282 283
338 343 338 295 255 237 228 238 240 232 223 227 235 230 221 217 217 223 233 237 238 240 242 235 233 233 232 233 235 238 238 237 238 239 236 235 236 240 244 245 244 242 240 239 241 243 244 245 245 247 250 253 259 257 257 258 257 255 254 258 258 260 260 259 261 260 258 258 258 262 264 268 270 270 271 275 277 275 272 278 273 270 273 278 282
342 353 1 358 272 257 247 232 243 236 223 219 224 224 219 221 223 222 225 228 233 234 232 228 230 232 234 236 236 237 236 235 238 248 246 239 239 239 242 245 246 245 242 241 242 245 247 248 248 252 254 257 260 265 264 262 263 261 259 261 261 262 263 263 264 264 264 264 264 265 266 268 273 277 276 276 272 267 267 275 278 274 270 272 270
341 350 8 22 10 278 257 256 242 238 228 223 222 225 225 225 230 231 228 234 244 246 241 227 228 227 233 237 239 238 236 235 242 245 248 251 246 244 245 246 249 248 248 247 245 246 248 249 248 247 249 253 258 266 265 263 260 261 263 266 269 269 267 268 267 269 269 269 268 269 271 271 272 275 277 275 274 278 276 275 277 272 271 270 268
349 348 353 4 19 329 250 225 238 235 230 236 240 242 234 229 229 230 231 230 232 235 243 238 235 230 226 227 226 225 228 232 236 241 246 249 249 247 248 247 248 249 250 250 247 247 248 249 249 250 253 258 261 262 266 267 265 261 259 260 265 275 277 275 272 270 272 272 273 276 276 276 273 274 276 274 276 279 280 280 280 280 278 277 273
354 353 350 5 26 10 320 271 258 259 251 241 236 241 239 232 231 235 237 237 239 236 227 226 235 239 239 241 244 238 232 237 241 242 247 249 251 251 247 247 246 243 245 249 251 249 249 249 251 254 256 266 266 267 268 267 265 262 258 255 258 264 273 281 283 278 277 278 276 277 281 277 276 277 280 277 269 269 273 276 277 278 281 277 272
355 355 349 357 9 18 355 317 319 279 269 267 267 267 263 251 241 238 239 240 239 234 231 229 233 244 248 246 239 234 234 232 244 247 248 248 251 252 241 241 242 248 246 245 249 254 255 255 255 257 261 264 266 269 271 271 269 265 262 261 260 259 265 275 280 283 279 277 278 278 280 281 282 282 282 276 279 283 279 281 281 279 276 280 271
356 352 350 352 354 0 359 355 352 313 289 291 290 284 275 263 261 247 242 240 233 223 220 230 236 241 246 249 245 240 241 248 250 253 253 253 250 252 252 247 242 244 246 246 250 254 258 260 262 263 265 269 270 273 274 274 270 268 266 264 264 262 261 262 266 271 274 276 278 280 279 281 283 283 278 282 285 280 277 277 282 285 277 264 262
354 349 348 350 353 356 354 355 3 356 320 296 288 284 269 260 255 248 242 232 225 222 227 234 237 242 246 249 248 246 242 253 257 259 262 262 254 245 246 251 249 241 239 243 250 255 259 263 264 265 267 269 273 281 279 273 271 268 267 265 261 260 260 262 268 270 273 275 277 278 279 282 286 285 285 284 280 276 274 275 270 271 267 262 272
355 352 350 350 353 351 351 356 359 358 354 337 311 275 261 257 246 242 235 235 233 234 234 241 243 248 254 252 248 242 242 251 258 260 260 268 263 253 248 245 243 243 244 246 249 256 261 265 267 264 264 266 271 278 279 278 272 271 268 265 263 262 260 259 268 276 280 284 287 288 287 286 285 286 286 290 283 279 278 278 282 276 274 279 279
357 351 349 351 353 349 349 349 354 356 356 1 351 294 255 247 247 241 229 225 227 229 232 235 239 243 249 248 247 246 245 251 264 263 264 266 262 258 256 254 250 246 245 248 250 254 260 272 273 269 267 267 273 280 284 280 276 274 270 268 267 268 268 268 268 273 284 289 291 292 291 288 287 286 285 286 287 283 282 286 282 279 283 283 279
355 354 353 352 350 347 346 344 348 350 357 3 4 349 302 261 251 248 237 227 220 225 226 225 228 233 236 239 247 250 247 251 263 260 264 274 271 260 262 261 255 251 245 243 250 256 259 262 271 273 272 271 272 271 274 277 276 274 272 269 268 270 272 269 269 269 270 273 276 278 278 282 281 280 281 288 290 290 285 283 277 280 281 281 281
356 354 351 348 346 344 338 339 339 346 353 354 353 357 334 304 272 257 247 241 235 237 235 235 235 233 236 238 241 247 249 247 250 257 259 268 276 263 259 259 257 252 255 260 257 259 262 262 265 269 271 271 272 274 276 281 278 274 272 273 273 270 269 268 268 270 269 270 272 275 275 275 276 277 277 278 281 287 285 283 281 280 280 281 282
348 346 340 338 341 342 338 336 339 347 350 346 342 346 344 334 305 282 266 253 250 249 250 248 244 240 242 244 246 250 250 250 248 261 265 278 286 283 266 265 266 268 264 259 258 257 259 264 265 267 271 269 267 265 264 268 270 268 270 273 277 270 260 265 265 268 268 270 271 272 273 274 275 277 279 279 280 281 282 284 282 282 282 283 284
332 330 330 332 333 337 337 334 335 334 338 338 336 339 338 335 334 335 316 285 273 264 259 257 254 250 250 251 251 251 250 252 253 266 282 289 288 289 270 268 268 266 263 260 260 261 261 262 260 260 261 261 262 262 262 264 266 267 265 259 248 247 257 262 262 263 265 267 269 271 273 277 277 278 279 279 279 281 282 283 284 285 288 290 291
316 321 329 326 327 324 323 334 330 326 329 331 328 331 328 331 333 327 332 328 321 301 279 264 258 253 250 252 254 255 255 255 263 255 256 271 280 286 285 275 277 269 268 265 265 263 258 260 263 265 263 262 263 263 264 265 265 267 269 268 270 268 266 270 269 268 270 271 271 273 275 276 277 278 279 278 280 282 282 284 286 288 289 289 290
311 313 322 323 320 320 323 324 315 317 323 321 320 320 321 323 322 326 321 320 323 319 310 300 280 268 260 256 256 253 253 256 263 259 262 278 280 293 284 271 272 267 266 265 262 261 262 263 263 259 258 254 254 255 258 263 265 265 269 272 276 277 275 273 272 272 271 272 274 274 276 278 277 278 278 277 277 279 281 283 283 286 287 287 289
309 313 316 315 312 310 307 312 309 308 315 316 316 314 318 318 317 315 316 314 312 311 308 305 304 295 281 269 262 259 253 254 256 261 270 274 281 278 271 269 267 269 265 263 264 264 264 267 266 266 266 264 262 262 265 268 273 276 279 281 282 279 280 279 278 276 276 277 276 275 276 279 280 279 277 276 276 277 280 280 282 284 286 286 286
306 312 312 310 311 307 305 300 295 298 308 307 307 306 310 313 308 299 300 299 302 304 300 303 304 297 291 288 281 270 259 257 264 266 269 272 268 267 271 272 270 267 264 264 265 264 263 261 263 263 262 265 267 269 269 270 268 271 275 280 281 283 283 283 283 284 284 282 281 280 281 278 280 280 280 280 280 282 282 282 282 284 286 287 286
298 300 304 306 306 305 307 303 300 300 306 302 298 298 298 299 301 302 298 299 299 296 292 295 293 289 288 286 282 280 282 276 276 276 278 276 274 275 275 275 278 278 273 268 264 262 262 262 262 264 269 269 271 274 274 270 270 273 275 278 281 282 283 284 283 282 282 281 280 280 279 279 277 278 281 281 281 281 282 281 281 282 283 285 286
295 297 297 296 300 302 303 309 305 297 298 294 290 287 288 295 299 303 305 303 301 302 302 302 301 299 294 289 286 284 286 286 284 286 285 282 281 281 282 283 283 280 278 274 270 266 265 265 267 269 268 269 nan nan nan nan nan nan nan nan nan nan 281 283 283 283 282 280 278 278 278 277 278 279 278 280 281 281 281 281 283 282 282 282 282
283 284 286 284 290 294 299 300 294 294 288 280 274 275 282 294 296 294 287 290 299 301 302 301 300 294 291 294 294 287 287 290 295 287 288 288 290 286 285 284 282 280 278 279 275 nan nan nan nan nan nan nan nan nan nan nan nan nan nan nan nan nan nan 277 279 280 279 279 280 281 280 279 280 281 281 282 283 282 280 281 284 285 282 282 285
279 282 284 283 285 287 291 291 291 292 290 287 285 278 264 264 264 276 289 284 269 270 283 291 294 294 289 279 279 289 295 294 291 292 290 284 279 276 278 280 281 282 nan nan nan nan nan nan nan nan nan nan nan nan nan nan nan nan nan nan nan nan nan nan nan nan 281 283 284 286 287 287 287 286 284 283 281 280 280 281 281 282 281 281 283
278 281 284 283 286 284 284 284 286 288 288 289 288 285 282 270 258 254 258 263 262 270 278 282 283 288 289 286 274 263 282 291 295 292 nan nan nan nan nan nan nan nan nan nan nan nan nan nan nan nan nan nan nan nan nan nan nan nan nan nan nan nan nan nan nan nan 282 284 286 289 291 292 292 289 288 286 282 280 278 280 280 281 281 281 281
279 280 283 282 286 284 279 282 281 283 281 282 283 284 282 280 273 262 263 266 266 262 263 267 272 278 287 289 286 271 274 284 nan nan nan nan nan nan nan nan nan nan nan nan nan nan nan nan nan nan nan nan nan nan nan nan nan nan nan nan nan nan nan nan nan nan nan nan nan nan 283 283 284 285 285 283 281 279 278 276 278 279 279 280 280
277 276 277 280 282 285 280 279 280 278 280 280 279 279 280 280 282 279 270 271 274 271 nan nan nan nan nan nan nan nan nan nan nan nan nan nan nan nan nan nan nan nan nan nan nan nan nan nan nan nan nan nan nan nan nan nan nan nan nan nan nan nan nan nan nan nan nan nan nan nan nan nan 283 282 281 279 278 277 276 275 273 274 275 275 276
283 278 275 278 278 278 280 279 279 281 282 281 281 282 282 280 280 279 279 272 267 nan nan nan nan nan nan nan nan nan nan nan nan nan nan nan nan nan nan nan nan nan nan nan nan nan nan nan nan nan nan nan nan nan nan nan nan nan nan nan nan nan nan nan nan nan nan nan nan 280 280 280 279 nan 278 280 280 279 278 276 275 274 275 276 276
285 286 293 283 277 278 279 278 279 279 281 284 286 288 285 284 281 281 281 282 282 281 280 nan nan nan nan nan nan nan nan nan nan nan nan nan nan nan nan nan nan nan nan nan nan nan nan nan nan nan nan nan nan nan nan nan nan nan nan nan nan nan nan nan nan nan nan nan nan nan nan nan nan 281 276 273 272 273 273 271 nan nan 271 271 271
286 285 283 282 277 274 274 276 278 279 281 282 285 286 284 283 290 287 286 284 283 280 274 275 271 277 nan nan nan nan nan nan nan nan nan nan nan nan nan nan nan nan nan nan nan nan nan nan nan nan nan nan nan nan nan nan nan nan nan nan nan nan nan nan nan nan nan nan nan nan nan nan nan nan nan nan nan nan nan nan nan nan nan nan nan
282 280 276 275 274 272 272 272 274 277 277 279 282 283 287 285 283 282 284 286 285 281 278 274 274 271 275 282 287 nan nan nan nan nan nan nan nan nan nan nan nan nan nan nan nan nan nan nan nan nan nan nan nan nan nan nan nan nan nan nan nan nan nan nan nan nan nan nan nan nan nan nan nan nan nan nan nan nan nan nan nan nan nan nan nan
278 279 276 271 268 268 268 269 270 275 276 277 279 280 282 282 285 286 287 287 286 283 279 280 282 283 286 283 293 287 nan nan nan nan nan nan nan nan nan nan nan nan nan nan nan nan nan nan nan nan nan nan nan nan nan nan nan nan nan nan nan nan nan nan nan nan nan nan nan nan nan nan nan nan nan nan nan nan nan nan nan nan nan 275 274
271 278 279 272 263 265 265 266 268 271 271 272 274 276 278 279 282 284 284 284 287 285 284 284 285 286 283 280 283 285 287 nan 290 nan nan nan nan nan nan nan nan nan nan nan nan nan nan nan nan nan nan nan nan nan nan nan nan nan nan nan nan nan nan nan nan nan nan nan nan nan nan nan nan nan nan nan nan nan nan nan nan nan nan nan nan
270 272 271 268 257 258 259 262 264 266 269 nan nan nan 275 278 280 282 282 285 286 285 284 285 286 285 285 286 284 287 nan nan nan nan nan nan nan nan nan nan nan nan nan nan nan nan nan nan nan nan nan nan nan nan nan nan nan nan nan nan nan nan nan nan nan nan nan nan nan nan nan nan nan nan nan nan nan nan nan nan nan nan nan nan nan
269 269 265 259 256 255 254 257 260 nan nan 267 nan nan nan 277 279 279 279 281 282 283 283 283 282 282 288 294 300 300 290 290 nan nan nan nan nan nan nan nan nan nan nan nan nan nan nan nan nan nan nan nan nan nan nan nan nan nan nan nan nan nan nan nan nan nan nan nan nan nan nan nan nan nan nan nan nan nan nan nan nan nan nan nan nan
267 264 259 255 255 255 255 255 258 260 264 266 nan nan nan 276 278 279 280 281 282 281 282 283 285 289 290 296 302 nan nan nan nan nan nan nan nan nan nan nan nan nan nan nan nan nan nan nan nan nan nan nan nan nan nan nan nan nan nan nan nan nan nan nan nan nan nan nan nan nan nan nan nan nan nan nan nan nan nan nan nan nan nan nan nan
263 256 253 252 257 257 nan 259 nan nan nan nan nan nan 273 277 280 281 281 281 nan nan nan nan 288 290 289 287 nan nan nan nan nan nan nan 290 nan nan nan nan nan nan nan nan nan nan nan nan nan nan nan nan nan nan nan nan nan nan nan nan nan nan nan nan nan nan nan nan nan nan nan nan nan nan nan nan nan nan nan nan nan nan nan nan nan
251 246 247 252 257 nan nan nan nan nan nan nan nan nan nan nan nan nan nan 283 nan 288 nan nan nan nan nan nan nan nan nan nan nan nan nan nan nan nan nan nan nan nan nan nan nan nan nan nan nan nan nan nan nan nan nan nan nan nan nan nan nan nan nan nan nan nan nan nan nan nan nan nan nan nan nan nan nan nan nan nan nan nan nan nan nan
245 247 251 nan nan nan nan nan nan nan nan nan nan nan 270 nan nan nan nan nan nan nan nan nan nan nan nan nan 289 nan nan nan nan 287 291 nan nan nan nan nan nan nan nan nan nan nan nan nan nan nan nan nan nan nan nan nan nan nan nan nan nan nan nan nan nan nan nan nan nan nan nan nan nan nan nan nan nan nan nan nan nan nan nan nan nan
244 nan nan nan nan nan nan nan nan nan nan nan nan nan 268 nan nan nan nan nan nan nan nan nan nan nan nan nan nan nan nan nan nan nan nan nan nan nan nan nan nan nan nan nan nan nan nan nan nan nan nan nan nan nan nan nan nan nan nan nan nan nan nan nan nan nan nan nan nan nan nan nan nan nan nan nan nan nan nan nan nan nan nan nan nan
nan nan nan nan nan nan nan nan nan nan nan nan nan nan nan nan nan nan nan nan nan nan nan nan nan nan nan nan nan nan nan nan nan nan nan nan nan nan nan nan nan nan nan nan nan nan nan nan nan nan nan nan nan nan nan nan nan nan nan nan nan nan nan nan nan nan nan nan nan nan nan nan nan nan nan nan nan nan nan nan nan nan nan nan nan
nan nan nan nan nan nan nan nan nan nan nan nan nan nan nan nan nan nan nan nan nan nan nan nan nan nan nan nan nan nan nan nan nan nan nan nan nan nan nan nan nan nan nan nan nan nan nan nan nan nan nan nan nan nan nan nan nan nan nan nan nan nan nan nan nan nan nan nan nan nan nan nan nan nan nan nan nan nan nan nan nan nan nan nan nan
nan nan nan nan nan nan nan nan nan 275 nan nan nan nan nan nan nan nan nan nan nan nan nan nan nan nan nan nan nan nan nan nan nan nan nan nan nan nan nan nan nan nan nan nan nan nan nan nan nan nan nan nan nan nan nan nan nan nan nan nan nan nan nan nan nan nan nan nan nan nan nan nan nan nan nan nan nan nan nan nan nan nan nan nan nan
254 nan nan nan nan nan nan nan nan nan nan nan nan nan nan nan nan nan nan nan nan nan nan nan nan nan nan nan nan nan nan nan nan nan nan nan nan nan nan nan nan nan nan nan nan nan nan nan nan nan nan nan nan nan nan nan nan nan nan nan nan nan nan nan nan nan nan nan nan nan nan nan nan nan nan nan nan nan nan nan nan nan nan nan nan
260 259 nan nan nan nan nan nan nan nan nan nan nan nan nan nan nan nan nan nan nan nan nan nan nan nan nan nan nan nan nan nan nan nan nan nan nan nan nan nan nan nan nan nan nan nan nan nan nan nan nan nan nan nan nan nan nan nan nan nan nan nan nan nan nan nan nan nan nan nan nan nan nan nan nan nan nan nan nan nan nan nan nan nan nan